1522591200.12,36724,10.75,71224.8,-7.97,-9.11,-8.97,0,*52
1522591201.32,36725,10.75,71236.0,-7.97,-9.05,-8.93,0,*52
1522591202.56,36726,10.75,71228.5,-7.95,-8.93,-8.85,0,*5A
1522591203.75,36727,10.75,71222.5,-7.97,-9.19,-8.93,0,*5D
1522591204.98,36728,10.75,71228.5,-7.97,-9.11,-9.05,0,*54
1522591206.21,36729,10.75,71222.0,-7.95,-9.05,-8.89,0,*57
1522591207.44,36730,10.75,71224.8,-7.95,-9.05,-8.93,0,*54
1522591208.67,36731,10.75,71244.8,-7.97,-9.11,-9.05,0,*5C
1522591209.89,36732,10.75,71250.3,-7.95,-9.31,-9.27,0,*5F
1522591211.11,36733,10.75,71256.3,-7.95,-9.05,-8.93,0,*57
1522591212.36,36734,10.75,71252.0,-7.95,-9.01,-8.81,0,*57
1522591213.6,36735,10.75,71232.3,-7.95,-9.05,-8.81,0,*52
1522591214.83,36736,10.75,71244.8,-7.95,-9.27,-9.01,0,*58
1522591216.09,36737,10.75,71240.5,-7.95,-9.15,-9.01,0,*58
1522591217.31,36738,10.75,71232.8,-7.95,-9.31,-9.19,0,*58
1522591218.55,36739,10.75,71238.0,-7.95,-9.83,-9.67,0,*59
1522591219.75,36740,10.75,71242.3,-7.97,-9.75,-9.67,0,*5C
1522591220.98,36741,10.75,71244.8,-7.95,-9.27,-9.01,0,*58
1522591222.22,36742,10.75,71234.0,-7.95,-9.41,-9.19,0,*52
1522591223.42,36743,10.75,71236.8,-7.97,-9.23,-8.97,0,*52
1522591224.65,36744,10.75,71230.8,-7.95,-9.01,-8.89,0,*58
1522591225.87,36745,10.75,71214.3,-7.97,-9.49,-9.31,0,*55
1522591227.12,36746,10.75,71222.3,-7.97,-9.49,-9.45,0,*55
1522591228.34,36747,10.75,71242.8,-7.95,-9.31,-9.19,0,*50
1522591229.59,36748,10.75,71224.5,-7.95,-9.71,-9.53,0,*55
1522591230.82,36749,10.75,71228.8,-7.97,-9.71,-9.57,0,*52
1522591232.09,36750,10.75,71228.3,-7.95,-9.45,-9.41,0,*58
1522591233.3,36751,10.75,71228.3,-7.97,-9.45,-9.31,0,*5C
1522591234.55,36752,10.75,71238.3,-7.95,-9.67,-9.57,0,*5D
1522591235.79,36753,10.75,71238.0,-7.97,-9.61,-9.37,0,*5E
1522591237.03,36754,10.75,71224.3,-7.97,-9.57,-9.45,0,*59
1522591238.28,36755,10.75,71222.5,-7.97,-9.57,-9.37,0,*5D
1522591239.5,36756,10.75,71230.5,-7.97,-9.45,-9.23,0,*58
1522591240.72,36757,10.75,71216.3,-7.97,-9.45,-9.23,0,*59
1522591241.94,36758,10.75,71212.5,-8.01,-9.67,-9.61,0,*50
1522591243.14,36759,10.75,71208.5,-8.01,-9.67,-9.67,0,*57
1522591244.42,36760,10.75,71212.3,-7.99,-9.49,-9.41,0,*5B
1522591245.69,36761,10.75,71212.5,-7.99,-9.53,-9.41,0,*51
1522591246.94,36762,10.75,71210.3,-7.99,-9.37,-9.23,0,*54
1522591248.2,36763,10.75,71210.8,-7.99,-9.37,-9.23,0,*55
1522591249.45,36764,10.75,71218.5,-7.99,-9.27,-9.15,0,*56
1522591250.7,36765,10.75,71208.3,-8.01,-9.53,-9.49,0,*53
1522591251.95,36766,10.75,71214.3,-7.99,-9.41,-9.27,0,*55
1522591253.19,36767,10.75,71208.0,-8.01,-9.15,-9.01,0,*5F
1522591254.45,36768,10.75,71204.3,-7.99,-9.23,-9.11,0,*5A
1522591255.71,36769,10.75,71204.5,-7.99,-9.15,-8.89,0,*5E
1522591256.91,36770,10.75,71200.3,-8.01,-9.27,-9.23,0,*58
1522591258.14,36771,10.75,71214.0,-7.99,-9.01,-8.97,0,*5D
1522591259.4,36772,10.75,71204.0,-8.01,-9.15,-9.11,0,*5A
1522591260.63,36773,10.75,71208.5,-7.99,-9.27,-9.23,0,*55
1522591261.86,36774,10.75,71210.8,-7.99,-9.27,-9.23,0,*52
1522591263.11,36775,10.75,71222.0,-7.99,-9.37,-9.23,0,*52
1522591264.36,36776,10.75,71226.5,-7.99,-9.23,-9.15,0,*51
1522591265.6,36777,10.75,71222.0,-7.99,-8.93,-8.89,0,*5E
1522591266.8,36778,10.75,71238.0,-7.97,-8.97,-8.93,0,*50
1522591268.0,36779,10.75,71234.5,-7.97,-9.05,-8.97,0,*5F
1522591269.2,36780,10.75,71236.5,-7.97,-9.05,-8.97,0,*59
1522591270.41,36781,10.75,71236.8,-7.97,-8.85,-8.85,0,*52
1522591271.61,36782,10.75,71230.0,-7.97,-8.97,-8.85,0,*52
1522591272.86,36783,10.75,71242.3,-7.95,-9.15,-9.05,0,*53
1522591274.06,36784,10.75,71246.0,-7.97,-8.97,-8.97,0,*57
1522591275.26,36785,10.75,71252.0,-7.97,-9.05,-8.97,0,*5C
1522591276.46,36786,10.75,71252.5,-7.97,-9.31,-9.19,0,*5F
1522591277.66,36787,10.75,71250.3,-7.97,-9.31,-9.19,0,*5E
1522591278.94,36788,10.75,71232.3,-7.95,-9.15,-9.11,0,*5D
1522591280.18,36789,10.75,71238.0,-7.97,-9.57,-9.45,0,*59
1522591281.45,36790,10.75,71238.0,-7.95,-9.53,-9.53,0,*50
1522591282.69,36791,10.75,71238.8,-7.97,-9.57,-9.49,0,*5C
1522591283.94,36792,10.75,71232.3,-7.97,-9.61,-9.61,0,*50
1522591285.19,36793,10.75,71230.5,-7.99,-9.67,-9.61,0,*59
1522591286.46,36794,10.75,71226.0,-7.99,-9.49,-9.37,0,*51
1522591287.68,36795,10.75,71220.0,-7.95,-9.27,-9.19,0,*58
1522591288.89,36796,10.75,71224.0,-7.97,-9.23,-9.05,0,*50
1522591290.08,36797,10.75,71232.0,-7.97,-8.97,-8.93,0,*51
1522591291.28,36798,10.75,71220.8,-7.97,-8.85,-8.75,0,*55
1522591292.51,36799,10.75,71208.0,-7.97,-8.85,-8.81,0,*5F
1522591293.71,36800,10.75,71198.8,-7.97,-9.05,-8.93,0,*5A
1522591294.94,36801,10.75,71202.3,-7.95,-9.01,-8.89,0,*56
1522591296.16,36802,10.75,71208.5,-7.95,-9.27,-9.05,0,*54
1522591297.39,36803,10.75,71220.5,-7.95,-9.19,-9.05,0,*58
1522591298.59,36804,10.75,71210.8,-7.97,-9.05,-8.97,0,*5A
1522591299.84,36805,10.75,71242.0,-7.97,-9.37,-9.11,0,*55
1522591301.07,36806,10.75,71212.5,-7.97,-9.37,-9.19,0,*5E
1522591302.31,36807,10.75,71234.3,-7.95,-9.27,-9.15,0,*50
1522591303.51,36808,10.75,71230.8,-7.97,-9.19,-8.93,0,*5F
1522591304.74,36809,10.75,71242.3,-7.97,-9.23,-9.11,0,*5C
1522591305.96,36810,10.75,71254.3,-7.95,-9.27,-9.05,0,*57
1522591307.18,36811,10.75,71252.8,-7.97,-9.41,-9.23,0,*50
1522591308.41,36812,10.75,71234.8,-7.97,-9.45,-9.19,0,*5E
1522591309.67,36813,10.75,71246.5,-7.95,-9.53,-9.41,0,*57
1522591310.94,36814,10.75,71254.0,-7.95,-9.57,-9.53,0,*57
1522591312.18,36815,10.75,71252.0,-7.97,-9.57,-9.53,0,*54
1522591313.41,36816,10.75,71260.3,-7.97,-9.31,-9.11,0,*51
1522591314.64,36817,10.75,71258.0,-7.97,-9.11,-8.97,0,*5D
1522591315.86,36818,10.75,71256.0,-7.95,-8.93,-8.93,0,*5F
1522591317.11,36819,10.75,71256.0,-7.95,-9.01,-8.81,0,*57
1522591318.34,36820,10.75,71254.5,-7.95,-9.05,-8.93,0,*5A
1522591319.59,36821,10.75,71256.3,-7.95,-9.15,-8.93,0,*5A
1522591320.83,36822,10.75,71240.0,-7.95,-9.45,-9.19,0,*5F
1522591322.06,36823,10.75,71228.3,-7.95,-9.19,-9.01,0,*5E
1522591323.31,36824,10.75,71218.8,-7.95,-9.41,-9.27,0,*50
1522591324.58,36825,10.75,71216.5,-7.95,-9.57,-9.45,0,*52
1522591325.77,36826,10.75,71200.8,-7.97,-9.89,-9.71,0,*57
1522591326.98,36827,10.75,71228.0,-7.95,-9.89,-9.67,0,*53
1522591328.17,36828,10.75,71238.8,-7.97,-9.89,-9.71,0,*59
1522591329.4,36829,10.75,71238.8,-7.97,-9.71,-9.57,0,*5B
1522591330.66,36830,10.75,71246.0,-7.95,-9.57,-9.41,0,*52
1522591331.88,36831,10.75,71236.5,-7.97,-9.79,-9.57,0,*5A
1522591333.1,36832,10.75,71242.8,-7.97,-9.79,-9.61,0,*5C
1522591334.35,36833,10.75,71226.0,-7.99,-9.83,-9.67,0,*50
1522591335.58,36834,10.75,71216.5,-7.99,-9.79,-9.67,0,*52
1522591336.83,36835,10.75,71226.0,-7.99,-9.67,-9.49,0,*50
1522591338.08,36836,10.75,71222.0,-8.01,-9.61,-9.41,0,*53
1522591339.33,36837,10.75,71202.0,-7.99,-9.97,-9.83,0,*5B
1522591340.55,36838,10.75,71214.5,-8.01,-9.75,-9.61,0,*5A
1522591341.81,36839,10.75,71202.8,-7.99,-9.67,-9.53,0,*57
1522591343.03,36840,10.75,71214.3,-8.01,-9.83,-9.67,0,*5A
1522591344.28,36841,10.75,71220.5,-7.99,-9.75,-9.61,0,*5A
1522591345.53,36842,10.75,71224.3,-7.99,-9.75,-9.61,0,*59
1522591346.76,36843,10.75,71226.3,-8.01,-9.67,-9.53,0,*54
1522591347.99,36844,10.75,71222.3,-8.01,-9.75,-9.53,0,*50
1522591349.19,36845,10.75,71222.5,-8.01,-9.75,-9.67,0,*56
1522591350.39,36846,10.75,71218.3,-8.01,-9.75,-9.67,0,*55
1522591351.62,36847,10.81,71214.3,-8.01,-9.41,-9.27,0,*57
1522591352.85,36848,10.75,71220.5,-8.01,-9.67,-9.53,0,*5F
1522591354.07,36849,10.75,71230.8,-8.01,-9.49,-9.27,0,*51
1522591355.3,36850,10.75,71230.3,-8.01,-9.75,-9.53,0,*55
1522591356.53,36851,10.75,71238.8,-8.01,-9.67,-9.53,0,*57
1522591357.76,36852,10.75,71240.5,-8.01,-9.67,-9.53,0,*54
1522591358.96,36853,10.75,71248.5,-8.01,-9.75,-9.67,0,*51
1522591360.16,36854,10.75,71258.5,-8.01,-9.79,-9.67,0,*5A
1522591361.39,36855,10.75,71254.5,-8.01,-9.67,-9.53,0,*53
1522591362.59,36856,10.75,71270.5,-8.01,-9.75,-9.67,0,*54
1522591363.82,36857,10.75,71260.5,-8.03,-10.01,-9.79,0,*63
1522591365.07,36858,10.75,71264.3,-8.03,-9.71,-9.57,0,*5F
1522591366.32,36859,10.75,71264.3,-8.03,-9.71,-9.57,0,*5E
1522591367.51,36860,10.75,71254.0,-8.05,-9.89,-9.71,0,*51
1522591368.76,36861,10.75,71246.5,-8.03,-9.83,-9.71,0,*5C
1522591370.01,36862,10.75,71228.3,-8.03,-9.71,-9.57,0,*56
1522591371.21,36863,10.81,71246.8,-8.05,-9.71,-9.67,0,*52
1522591372.41,36864,10.75,71222.0,-8.05,-9.71,-9.67,0,*55
1522591373.64,36865,10.75,71224.5,-8.03,-9.79,-9.67,0,*5A
1522591374.88,36866,10.81,71240.3,-8.03,-9.45,-9.31,0,*55
1522591376.11,36867,10.75,71238.0,-8.05,-9.67,-9.45,0,*51
1522591377.38,36868,10.81,71232.3,-8.03,-9.53,-9.41,0,*5B
1522591378.63,36869,10.75,71226.5,-8.03,-9.67,-9.53,0,*5E
1522591379.88,36870,10.81,71234.8,-8.03,-9.67,-9.53,0,*56
1522591381.1,36871,10.75,71234.3,-8.05,-9.67,-9.45,0,*56
1522591382.34,36872,10.75,71236.0,-8.05,-9.57,-9.41,0,*52
1522591383.61,36873,10.75,71232.8,-8.03,-9.57,-9.45,0,*51
1522591384.85,36874,10.75,71244.5,-8.05,-9.57,-9.45,0,*50
1522591386.1,36875,10.75,71246.3,-8.03,-9.67,-9.53,0,*53
1522591387.35,36876,10.75,71242.3,-8.03,-9.67,-9.53,0,*50
1522591388.56,36877,10.75,71254.3,-8.05,-9.71,-9.67,0,*57
1522591389.83,36878,10.81,71260.5,-8.03,-9.57,-9.53,0,*5D
1522591391.08,36879,10.75,71244.3,-8.03,-9.67,-9.53,0,*5F
1522591392.34,36880,10.75,71248.3,-8.03,-9.71,-9.45,0,*59
1522591393.56,36881,10.81,71226.5,-8.05,-9.71,-9.45,0,*5E
1522591394.78,36882,10.75,71240.3,-8.05,-9.83,-9.71,0,*57
1522591395.97,36883,10.81,71262.3,-8.05,-9.89,-9.79,0,*54
1522591397.17,36884,10.81,71248.8,-8.05,-9.89,-9.79,0,*53
1522591398.36,36885,10.75,71226.3,-8.05,-10.01,-9.89,0,*65
1522591399.59,36886,10.75,71234.0,-8.05,-9.71,-9.57,0,*5A
1522591400.79,36887,10.75,71214.5,-8.05,-9.79,-9.67,0,*50
1522591401.98,36888,10.75,71208.5,-8.05,-9.97,-9.79,0,*50
1522591403.18,36889,10.75,71182.5,-8.05,-9.79,-9.71,0,*59
1522591404.4,36890,10.81,71188.5,-8.05,-9.83,-9.71,0,*54
1522591405.63,36891,10.81,71214.3,-8.05,-9.71,-9.53,0,*58
1522591406.83,36892,10.75,71204.8,-8.05,-9.79,-9.67,0,*54
1522591408.07,36893,10.75,71204.8,-8.05,-9.57,-9.41,0,*5D
1522591409.3,36894,10.81,71220.8,-8.05,-9.41,-9.27,0,*5D
1522591410.53,36895,10.75,71204.8,-8.05,-9.71,-9.57,0,*58
1522591411.74,36896,10.75,71192.3,-8.05,-9.97,-9.83,0,*5A
1522591412.96,36897,10.75,71220.3,-8.05,-9.89,-9.83,0,*54
1522591414.18,36898,10.81,71216.5,-8.05,-10.01,-9.83,0,*63
1522591415.42,36899,10.81,71186.8,-8.11,-10.45,-10.19,0,*5C
1522591416.65,36900,10.75,71210.8,-8.07,-10.09,-9.89,0,*63
1522591417.9,36901,10.75,71158.5,-8.11,-9.75,-9.61,0,*50
1522591419.17,36902,10.75,71218.8,-8.07,-9.53,-9.41,0,*52
1522591420.41,36903,10.75,71194.3,-8.11,-9.83,-9.71,0,*5A
1522591421.64,36904,10.75,71168.5,-8.11,-10.05,-9.93,0,*67
1522591422.88,36905,10.81,71184.3,-8.07,-9.83,-9.79,0,*53
1522591424.11,36906,10.75,71178.5,-8.07,-9.71,-9.67,0,*52
1522591425.33,36907,10.75,71202.5,-8.11,-9.93,-9.75,0,*5B
1522591426.58,36908,10.75,71204.5,-8.07,-9.97,-9.83,0,*5E
1522591427.8,36909,10.75,71178.0,-8.11,-9.89,-9.75,0,*5E
1522591429.01,36910,10.75,71122.5,-8.07,-9.89,-9.75,0,*51
1522591430.26,36911,10.75,71148.3,-8.11,-9.75,-9.61,0,*51
1522591431.5,36912,10.75,71160.8,-8.11,-10.05,-10.01,0,*53
1522591432.74,36913,10.81,71190.3,-8.11,-10.27,-10.15,0,*57
1522591433.98,36914,10.81,71202.0,-8.11,-9.93,-9.83,0,*50
1522591435.23,36915,10.75,71158.8,-8.11,-9.75,-9.61,0,*55
1522591436.46,36916,10.81,71148.8,-8.13,-9.79,-9.61,0,*58
1522591437.65,36917,10.75,71160.8,-8.13,-9.89,-9.75,0,*53
1522591438.9,36918,10.75,71154.8,-8.11,-9.71,-9.61,0,*5C
1522591440.15,36919,10.81,71186.8,-8.07,-9.67,-9.45,0,*5B
1522591441.43,36920,10.81,71156.3,-8.07,-9.45,-9.41,0,*55
1522591442.7,36921,10.75,71170.5,-8.11,-9.57,-9.45,0,*54
1522591443.94,36922,10.75,71180.5,-8.11,-9.75,-9.61,0,*51
1522591445.17,36923,10.75,71176.5,-8.07,-9.31,-9.05,0,*55
1522591446.42,36924,10.75,71184.5,-8.11,-9.37,-9.23,0,*57
1522591447.65,36925,10.75,71168.8,-8.11,-9.23,-9.05,0,*57
1522591448.91,36926,10.81,71132.8,-8.07,-9.15,-8.93,0,*58
1522591450.17,36927,10.75,71140.5,-8.07,-9.57,-9.41,0,*51
1522591451.42,36928,10.75,71136.5,-8.07,-9.45,-9.27,0,*5D
1522591452.64,36929,10.75,71134.3,-8.05,-9.67,-9.45,0,*5A
1522591453.87,36930,10.75,71128.0,-8.05,-9.71,-9.53,0,*52
1522591455.1,36931,10.81,71138.8,-8.07,-9.31,-9.05,0,*56
1522591456.38,36932,10.75,71132.0,-8.07,-9.41,-9.15,0,*53
1522591457.62,36933,10.75,71146.5,-8.07,-9.53,-9.31,0,*57
1522591458.87,36934,10.81,71152.8,-8.07,-9.45,-9.27,0,*50
1522591460.12,36935,10.81,71178.0,-8.07,-9.31,-9.15,0,*53
1522591461.34,36936,10.75,71176.3,-8.07,-9.19,-9.05,0,*5B
1522591462.59,36937,10.81,71172.0,-8.07,-9.27,-9.15,0,*56
1522591463.79,36938,10.81,71166.5,-8.05,-9.19,-8.93,0,*59
1522591465.02,36939,10.81,71172.5,-8.05,-9.41,-9.27,0,*5B
1522591466.22,36940,10.75,71174.3,-8.05,-9.31,-9.19,0,*5F
1522591467.44,36941,10.75,71168.8,-8.05,-9.41,-9.27,0,*54
1522591468.71,36942,10.75,71156.8,-8.03,-9.53,-9.41,0,*52
1522591469.94,36943,10.75,71172.5,-8.03,-9.79,-9.67,0,*5F
1522591471.17,36944,10.75,71190.0,-8.05,-9.71,-9.45,0,*56
1522591472.41,36945,10.75,71206.3,-8.03,-9.53,-9.31,0,*52
1522591473.61,36946,10.75,71172.5,-8.05,-9.79,-9.67,0,*5C
1522591474.8,36947,10.75,71164.8,-8.05,-9.97,-9.79,0,*52
1522591476.03,36948,10.81,71180.8,-8.03,-9.71,-9.67,0,*5C
1522591477.27,36949,10.81,71174.5,-8.05,-9.57,-9.41,0,*5B
1522591478.48,36950,10.75,71198.3,-8.05,-9.71,-9.67,0,*53
1522591479.7,36951,10.75,71210.8,-8.05,-9.71,-9.57,0,*51
1522591480.92,36952,10.81,71218.3,-8.05,-9.67,-9.41,0,*52
1522591482.14,36953,10.75,71212.3,-8.05,-9.67,-9.45,0,*57
1522591483.4,36954,10.81,71210.5,-8.03,-10.01,-9.83,0,*64
1522591484.62,36955,10.75,71188.3,-8.07,-10.09,-9.97,0,*6C
1522591485.84,36956,10.75,71190.0,-8.11,-10.01,-9.89,0,*6F
1522591487.09,36957,10.75,71188.8,-8.07,-9.83,-9.71,0,*5C
1522591488.34,36958,10.75,71198.0,-8.07,-10.09,-9.83,0,*64
1522591489.59,36959,10.75,71226.3,-8.11,-10.01,-9.83,0,*6A
1522591490.81,36960,10.75,71210.5,-8.07,-9.97,-9.71,0,*5D
1522591492.06,36961,10.75,71196.8,-8.07,-9.83,-9.71,0,*59
1522591493.3,36962,10.75,71184.3,-8.11,-9.83,-9.71,0,*5D
1522591494.53,36963,10.75,71198.8,-8.11,-9.75,-9.71,0,*55
1522591495.76,36964,10.81,71196.3,-8.07,-9.79,-9.67,0,*5E
1522591497.03,36965,10.75,71208.0,-8.11,-9.61,-9.37,0,*54
1522591498.27,36966,10.81,71142.8,-8.07,-9.57,-9.31,0,*53
1522591499.51,36967,10.75,71180.0,-8.07,-9.79,-9.57,0,*5E
1522591500.76,36968,10.81,71174.8,-8.11,-9.75,-9.49,0,*55
1522591502.03,36969,10.81,71182.8,-8.11,-9.61,-9.49,0,*51
1522591503.3,36970,10.81,71194.3,-8.07,-9.53,-9.41,0,*57
1522591504.52,36971,10.75,71202.3,-8.11,-9.89,-9.75,0,*51
1522591505.77,36972,10.81,71156.5,-8.11,-10.01,-9.83,0,*63
1522591507.03,36973,10.75,71172.8,-8.11,-10.01,-9.83,0,*62
1522591508.22,36974,10.75,71188.8,-8.13,-10.05,-9.89,0,*69
1522591509.44,36975,10.75,71174.8,-8.13,-10.57,-10.35,0,*50
1522591510.68,36976,10.75,71190.3,-8.13,-10.63,-10.35,0,*54
1522591511.92,36977,10.81,71182.5,-8.15,-10.19,-9.97,0,*6E
1522591513.11,36978,10.75,71188.8,-8.13,-9.93,-9.79,0,*5D
1522591514.32,36979,10.75,71190.3,-8.13,-9.79,-9.75,0,*54
1522591515.52,36980,10.75,71184.5,-8.13,-9.79,-9.75,0,*52
1522591516.74,36981,10.75,71196.3,-8.15,-9.89,-9.75,0,*5A
1522591517.93,36982,10.75,71198.0,-8.13,-10.05,-9.89,0,*60
1522591519.16,36983,10.75,71190.3,-8.15,-10.09,-9.93,0,*60
1522591520.35,36984,10.81,71210.0,-8.13,-9.97,-9.89,0,*55
1522591521.55,36985,10.75,71210.0,-8.13,-10.09,-9.93,0,*60
1522591522.75,36986,10.81,71230.5,-8.13,-10.09,-10.05,0,*54
1522591523.97,36987,10.81,71220.3,-8.13,-10.23,-10.19,0,*50
1522591525.24,36988,10.75,71230.8,-8.15,-10.63,-10.35,0,*53
1522591526.46,36989,10.75,71224.8,-8.17,-10.35,-10.15,0,*51
1522591527.68,36990,10.75,71230.5,-8.17,-10.35,-10.01,0,*5C
1522591528.88,36991,10.75,71218.0,-8.17,-10.01,-9.93,0,*69
1522591530.09,36992,10.75,71212.3,-8.17,-10.15,-9.93,0,*6F
1522591531.33,36993,10.75,71224.3,-8.19,-10.27,-10.15,0,*57
1522591532.6,36994,10.81,71184.0,-8.19,-10.41,-10.35,0,*52
1522591533.84,36995,10.81,71232.0,-8.19,-9.93,-9.83,0,*51
1522591535.08,36996,10.81,71232.5,-8.19,-10.27,-10.15,0,*52
1522591536.34,36997,10.81,71230.3,-8.19,-10.53,-10.41,0,*51
1522591537.57,36998,10.75,71156.8,-8.19,-10.15,-9.93,0,*6B
1522591538.82,36999,10.75,71196.8,-8.19,-9.83,-9.79,0,*59
1522591540.06,37000,10.81,71174.8,-8.19,-9.83,-9.71,0,*59
1522591541.3,37001,10.81,71210.0,-8.19,-9.83,-9.71,0,*58
1522591542.53,37002,10.81,71194.8,-8.19,-9.79,-9.67,0,*59
1522591543.73,37003,10.75,71230.5,-8.17,-9.79,-9.71,0,*51
1522591544.95,37004,10.81,71222.3,-8.19,-10.09,-9.93,0,*6B
1522591546.19,37005,10.81,71222.0,-8.19,-10.23,-10.01,0,*51
1522591547.42,37006,10.75,71104.3,-8.19,-10.01,-9.93,0,*61
1522591548.68,37007,10.75,71124.8,-8.19,-10.41,-10.23,0,*57
1522591549.92,37008,10.81,71154.3,-8.19,-9.93,-9.83,0,*5D
1522591551.14,37009,10.81,71148.5,-8.19,-10.01,-9.93,0,*6E
1522591552.39,37010,10.81,71158.3,-8.19,-9.97,-9.83,0,*50
1522591553.61,37011,10.81,71170.0,-8.19,-9.79,-9.71,0,*5C
1522591554.83,37012,10.81,71158.8,-8.19,-10.09,-9.97,0,*68
1522591556.08,37013,10.75,71166.5,-8.19,-9.83,-9.79,0,*53
1522591557.29,37014,10.81,71214.0,-8.21,-9.57,-9.31,0,*5A
1522591558.53,37015,10.81,71156.3,-8.19,-9.71,-9.57,0,*54
1522591559.78,37016,10.81,71136.5,-8.19,-9.97,-9.83,0,*56
1522591561.03,37017,10.81,71186.0,-8.19,-9.71,-9.45,0,*55
1522591562.26,37018,10.81,71166.8,-8.19,-9.79,-9.71,0,*55
1522591563.5,37019,10.81,71178.3,-8.19,-9.67,-9.45,0,*5C
1522591564.72,37020,10.75,71188.3,-8.17,-9.53,-9.27,0,*5B
1522591565.97,37021,10.75,71170.3,-8.19,-9.45,-9.27,0,*53
1522591567.21,37022,10.81,71178.0,-8.17,-9.53,-9.45,0,*5D
1522591568.45,37023,10.81,71156.8,-8.17,-9.57,-9.41,0,*5C
1522591569.7,37024,10.81,71174.0,-8.19,-9.93,-9.83,0,*53
1522591570.89,37025,10.81,71176.3,-8.17,-9.93,-9.71,0,*51
1522591572.09,37026,10.75,71156.5,-8.17,-9.93,-9.79,0,*5A
1522591573.33,37027,10.81,71168.8,-8.19,-9.83,-9.71,0,*5C
1522591574.55,37028,10.75,71190.3,-8.19,-9.79,-9.71,0,*56
1522591575.79,37029,10.81,71144.3,-8.19,-9.53,-9.31,0,*5B
1522591577.01,37030,10.81,71164.8,-8.17,-9.53,-9.31,0,*5D
1522591578.21,37031,10.81,71188.8,-8.17,-9.71,-9.67,0,*5F
1522591579.43,37032,10.81,71182.5,-8.17,-9.83,-9.67,0,*51
1522591580.62,37033,10.81,71150.5,-8.17,-9.93,-9.79,0,*5E
1522591581.85,37034,10.81,71130.3,-8.17,-10.01,-9.83,0,*6F
1522591583.04,37035,10.81,71124.3,-8.17,-9.97,-9.93,0,*58
1522591584.28,37036,10.81,71140.3,-8.19,-9.83,-9.67,0,*5B
1522591585.51,37037,10.81,71146.5,-8.19,-9.79,-9.67,0,*5F
1522591586.78,37038,10.81,71120.0,-8.19,-9.83,-9.83,0,*5F
1522591588.0,37039,10.81,71116.8,-8.19,-9.79,-9.67,0,*51
1522591589.22,37040,10.81,71104.3,-8.19,-9.79,-9.79,0,*50
1522591590.42,37041,10.81,71130.0,-8.17,-9.79,-9.71,0,*57
1522591591.67,37042,10.81,71140.8,-8.19,-9.71,-9.57,0,*56
1522591592.87,37043,10.81,71160.0,-8.17,-9.79,-9.71,0,*55
1522591594.09,37044,10.81,71168.0,-8.19,-9.97,-9.79,0,*54
1522591595.29,37045,10.81,71162.0,-8.17,-10.09,-9.97,0,*64
1522591596.53,37046,10.81,71152.0,-8.19,-10.49,-10.27,0,*5E
1522591597.82,37047,10.81,71144.0,-8.19,-10.75,-10.67,0,*54
1522591599.11,37048,10.81,71162.0,-8.19,-10.75,-10.67,0,*5B
1522591600.35,37049,10.81,71134.5,-8.21,-10.41,-10.27,0,*52
1522591601.62,37050,10.75,71092.5,-8.23,-10.67,-10.45,0,*58
1522591602.85,37051,10.81,71112.8,-8.23,-10.15,-9.97,0,*6B
1522591604.09,37052,10.81,71100.8,-8.23,-10.15,-10.01,0,*5F
1522591605.34,37053,10.81,71128.8,-8.23,-10.19,-10.15,0,*57
1522591606.56,37054,10.75,71174.5,-8.23,-10.05,-9.89,0,*60
1522591607.8,37055,10.81,71136.5,-8.23,-10.31,-10.19,0,*57
1522591609.04,37056,10.75,71140.0,-8.23,-10.31,-10.19,0,*54
1522591610.29,37057,10.81,71132.5,-8.23,-10.19,-10.01,0,*56
1522591611.53,37058,10.75,71106.5,-8.23,-10.19,-10.05,0,*5D
1522591612.75,37059,10.75,71120.0,-8.23,-10.05,-9.89,0,*6D
1522591613.99,37060,10.81,71076.0,-8.23,-10.31,-10.19,0,*51
1522591615.23,37061,10.81,71084.8,-8.23,-10.27,-10.15,0,*5B
1522591616.44,37062,10.75,71100.5,-8.25,-10.23,-10.01,0,*5F
1522591617.64,37063,10.81,71098.3,-8.25,-9.93,-9.79,0,*5A
1522591618.83,37064,10.81,71104.5,-8.25,-9.93,-9.89,0,*52
1522591620.02,37065,10.81,71120.3,-8.25,-9.93,-9.79,0,*5C
1522591621.22,37066,10.81,71132.0,-8.25,-9.93,-9.75,0,*53
1522591622.41,37067,10.75,71126.0,-8.25,-9.89,-9.67,0,*5A
1522591623.6,37068,10.81,71150.3,-8.25,-9.93,-9.89,0,*5E
1522591624.84,37069,10.75,71142.0,-8.23,-9.83,-9.75,0,*5B
1522591626.09,37070,10.81,71154.5,-8.23,-9.97,-9.83,0,*5F
1522591627.28,37071,10.81,71154.8,-8.25,-10.01,-9.89,0,*65
1522591628.47,37072,10.75,71166.3,-8.25,-9.89,-9.89,0,*5E
1522591629.69,37073,10.81,71148.0,-8.27,-10.01,-9.89,0,*65
1522591630.9,37074,10.81,71138.0,-8.25,-10.31,-10.09,0,*53
1522591632.1,37075,10.81,71152.0,-8.25,-10.01,-9.93,0,*6A
1522591633.3,37076,10.81,71098.0,-8.25,-10.09,-9.89,0,*6A
1522591634.51,37077,10.81,71142.8,-8.27,-9.93,-9.79,0,*5D
1522591635.71,37078,10.81,71140.8,-8.25,-9.79,-9.67,0,*5B
1522591636.91,37079,10.81,71140.8,-8.25,-10.05,-9.89,0,*69
1522591638.1,37080,10.81,71136.3,-8.25,-9.93,-9.75,0,*5B
1522591639.29,37081,10.75,71134.5,-8.25,-9.89,-9.75,0,*51
1522591640.5,37082,10.81,71160.3,-8.25,-9.89,-9.61,0,*57
1522591641.69,37083,10.81,71150.3,-8.25,-9.89,-9.89,0,*50
1522591642.91,37084,10.75,71156.3,-8.27,-9.93,-9.79,0,*51
1522591644.13,37085,10.81,71168.0,-8.25,-9.79,-9.53,0,*5E
1522591645.38,37086,10.81,71186.8,-8.25,-9.53,-9.41,0,*56
1522591646.6,37087,10.75,71200.5,-8.25,-9.67,-9.49,0,*58
1522591647.8,37088,10.75,71138.8,-8.25,-10.05,-9.93,0,*6C
1522591648.99,37089,10.81,71154.5,-8.25,-10.05,-9.93,0,*6D
1522591650.22,37090,10.81,71182.8,-8.27,-9.79,-9.67,0,*5F
1522591651.46,37091,10.81,71206.5,-8.25,-9.61,-9.49,0,*59
1522591652.69,37092,10.75,71210.8,-8.25,-9.75,-9.53,0,*54
1522591653.91,37093,10.81,71210.8,-8.25,-9.67,-9.53,0,*56
1522591655.12,37094,10.75,71188.5,-8.25,-9.89,-9.61,0,*50
1522591656.32,37095,10.75,71194.8,-8.25,-10.01,-9.79,0,*60
1522591657.51,37096,10.81,71206.8,-8.25,-9.93,-9.89,0,*5F
1522591658.72,37097,10.81,71208.5,-8.25,-10.09,-10.01,0,*5D
1522591659.94,37098,10.81,71196.5,-8.25,-10.19,-10.01,0,*53
1522591661.14,37099,10.81,71192.5,-8.25,-10.01,-9.93,0,*68
1522591662.35,37100,10.81,71208.0,-8.25,-10.01,-10.01,0,*5A
1522591663.55,37101,10.81,71208.5,-8.25,-10.09,-9.93,0,*60
1522591664.74,37102,10.81,71216.0,-8.25,-9.93,-9.89,0,*53
1522591665.95,37103,10.81,71218.0,-8.25,-10.19,-10.05,0,*54
1522591667.16,37104,10.81,71226.8,-8.25,-10.19,-10.05,0,*53
1522591668.39,37105,10.81,71226.0,-8.27,-10.19,-10.05,0,*50
1522591669.6,37106,10.81,71218.8,-8.25,-10.23,-10.05,0,*58
1522591670.83,37107,10.81,71212.0,-8.27,-10.23,-10.09,0,*57
1522591672.07,37108,10.81,71216.0,-8.27,-10.49,-10.31,0,*5F
1522591673.3,37109,10.81,71218.0,-8.27,-10.49,-10.31,0,*5E
1522591674.54,37110,10.81,71182.3,-8.27,-10.35,-10.23,0,*5E
1522591675.75,37111,10.81,71172.3,-8.29,-10.49,-10.35,0,*5D
1522591676.97,37112,10.75,71198.5,-8.29,-10.15,-10.05,0,*54
1522591678.2,37113,10.81,71186.5,-8.33,-10.41,-10.23,0,*5B
1522591679.42,37114,10.81,71224.5,-8.29,-10.53,-10.27,0,*50
1522591680.63,37115,10.81,71204.3,-8.33,-10.35,-10.23,0,*5E
1522591681.84,37116,10.81,71184.8,-8.29,-10.53,-10.27,0,*52
1522591683.05,37117,10.81,71134.8,-8.33,-10.27,-10.05,0,*5B
1522591684.27,37118,10.81,71162.3,-8.33,-9.97,-9.83,0,*51
1522591685.47,37119,10.81,71210.5,-8.29,-9.93,-9.79,0,*5A
1522591686.66,37120,10.81,71226.3,-8.33,-10.05,-9.93,0,*68
1522591687.88,37121,10.81,71214.8,-8.33,-9.83,-9.79,0,*5B
1522591689.08,37122,10.75,71240.0,-8.29,-10.05,-9.97,0,*65
1522591690.3,37123,10.75,71206.0,-8.29,-10.35,-10.23,0,*50
1522591691.54,37124,10.75,71228.8,-8.33,-10.41,-10.27,0,*5B
1522591692.8,37125,10.81,71220.8,-8.29,-10.75,-10.63,0,*56
1522591694.04,37126,10.81,71212.5,-8.33,-10.53,-10.41,0,*5A
1522591695.25,37127,10.81,71220.0,-8.33,-10.53,-10.35,0,*58
1522591696.46,37128,10.81,71186.5,-8.33,-10.49,-10.23,0,*5B
1522591697.66,37129,10.81,71172.8,-8.33,-10.23,-10.05,0,*52
1522591698.87,37130,10.81,71216.8,-8.29,-10.27,-10.05,0,*55
1522591700.13,37131,10.81,71220.8,-8.35,-10.85,-10.71,0,*52
1522591701.4,37132,10.81,71226.5,-8.35,-10.93,-10.79,0,*5E
1522591702.64,37133,10.81,71138.0,-8.37,-10.93,-10.79,0,*5D
1522591703.9,37134,10.81,71166.5,-8.35,-10.41,-10.27,0,*5C